Weather observations for the past three days for
New Ulm Municipal Airport
Imperial (Metric)
Date Time (cdt) Wind (mph) Vis. (mi.) Weather Sky Cond. Temperature (ºF) Relative Humidity Wind Chill (°F) Heat Index (°F) Pressure Precipitation (in)
Air Dwpt 6 hour altimeter (in) sea level (mb) 1 hr 3 hr 6 hr
Max. Min.
05 09:35 W 3 10.00 Overcast SCT065 OVC080 44.6 32 61% 29.88 0.0
05 09:15 Calm 10.00 Overcast OVC065 44.6 32 61% 29.88 0.0
05 08:55 Calm 10.00 Mostly Cloudy BKN065 42.8 32 66% 29.88 0.0
05 08:35 W 3 10.00 Fair CLR 41 30.2 66% 29.87 0.0
05 08:15 W 6 10.00 Fair CLR 39.2 30.2 70% 36 29.86 0.0
05 07:55 W 5 10.00 Fair CLR 39.2 30.2 70% 36 29.86 0.0
05 07:35 W 5 10.00 Fair CLR 37.4 30.2 75% 34 29.85 0.0
05 07:15 W 5 10.00 Fair CLR 35.6 30.2 81% 32 29.84 0.0
05 06:55 SW 3 10.00 Fair CLR 33.8 28.4 81% 29.83 0.0
05 06:35 SW 5 10.00 Fair CLR 30.2 26.6 86% 26 29.82 0.0
05 06:15 W 3 10.00 Fair CLR 33.8 26.6 75% 29.81 0.0
05 05:55 NW 5 10.00 Fair CLR 33.8 28.4 81% 30 29.81 0.0
05 05:35 NW 7 10.00 Fair CLR 33.8 28.4 81% 28 29.8 0.0
05 04:55 NW 6 10.00 Fair CLR 35.6 28.4 75% 31 29.8 0.0
05 04:15 W 6 10.00 Fair CLR 33.8 26.6 75% 29 29.8 0.0
05 03:55 W 6 10.00 Fair CLR 33.8 26.6 75% 29 29.79 0.0
05 03:35 W 5 10.00 Fair CLR 33.8 26.6 75% 30 29.79 0.0
05 03:15 W 5 10.00 Fair CLR 35.6 28.4 75% 32 29.78 0.0
05 02:55 NW 6 10.00 Fair CLR 37.4 28.4 70% 33 29.77 0.0
05 02:35 W 6 10.00 Fair CLR 37.4 28.4 70% 33 29.77 0.0
05 02:15 NW 3 10.00 Fair CLR 37.4 28.4 70% 29.77 0.0
05 01:55 NW 6 10.00 Fair CLR 39.2 28.4 65% 36 29.78 0.0
05 01:35 NW 5 10.00 Fair CLR 39.2 28.4 65% 36 29.78 0.0
05 01:15 NW 6 10.00 Fair CLR 39.2 28.4 65% 36 29.78 0.0
05 00:55 NW 7 10.00 Fair CLR 37.4 28.4 70% 33 29.78 0.0
05 00:35 NW 6 10.00 Fair CLR 39.2 28.4 65% 36 29.78 0.0
05 00:15 W 7 10.00 Fair CLR 41 28.4 61% 37 29.78 0.0
04 23:55 W 8 10.00 Fair CLR 42.8 28.4 57% 39 29.77 0.0
04 23:35 W 7 10.00 Fair CLR 42.8 28.4 57% 39 29.77 0.0
04 23:15 W 8 10.00 Fair CLR 42.8 28.4 57% 39 29.77 0.0
04 22:55 W 7 10.00 Fair CLR 42.8 28.4 57% 39 29.77 0.0
04 22:35 W 6 10.00 Fair CLR 44.6 28.4 53% 42 29.76 0.0
04 22:15 W 6 10.00 Fair CLR 44.6 28.4 53% 42 29.76 0.0
04 21:55 W 5 10.00 Fair CLR 44.6 28.4 53% 43 29.76 0.0
04 21:35 NW 7 10.00 Fair CLR 44.6 26.6 49% 41 29.76 0.0
04 21:15 NW 8 10.00 Fair CLR 46.4 28.4 50% 43 29.75 0.0
04 20:55 NW 12 10.00 Fair CLR 48.2 28.4 46% 44 29.74 0.0
04 20:35 NW 16 G 24 10.00 Fair CLR 48.2 26.6 43% 43 29.74 0.0
04 20:15 NW 16 G 24 10.00 Fair CLR 50 26.6 40% 45 29.73 0.0
04 19:55 NW 17 G 29 10.00 Fair CLR 51.8 28.4 41% 29.72 0.0
04 19:35 NW 22 G 32 10.00 Fair and Breezy CLR 51.8 28.4 41% 29.71 0.0
04 19:15 NW 23 G 31 10.00 Partly Cloudy and Breezy SCT065 53.6 30.2 41% 29.7 0.0
04 18:55 NW 17 G 29 10.00 Partly Cloudy SCT065 53.6 30.2 41% 29.69 0.0
04 18:35 NW 22 G 30 10.00 Fair and Breezy CLR 53.6 30.2 41% 29.69 0.0
04 18:15 NW 23 G 32 10.00 Partly Cloudy and Breezy SCT065 53.6 30.2 41% 29.68 0.0
04 17:55 NW 22 G 33 10.00 Fair and Breezy CLR 53.6 30.2 41% 29.68 0.0
04 17:35 NW 22 G 33 10.00 Fair and Breezy CLR 55.4 33.8 44% 29.67 0.0
04 17:15 NW 28 G 32 10.00 Fair and Windy CLR 57.2 33.8 41% 29.66 0.0
04 16:55 NW 25 G 32 10.00 Fair and Breezy CLR 57.2 35.6 44% 29.65 0.0
04 16:35 NW 25 G 33 10.00 Partly Cloudy and Breezy SCT065 57.2 35.6 44% 29.64 0.0
04 16:15 NW 25 G 33 10.00 Partly Cloudy and Breezy SCT065 57.2 35.6 44% 29.63 0.0
04 15:55 NW 26 G 36 10.00 Fair and Windy CLR 59 33.8 39% 29.63 0.0
04 15:35 NW 24 G 30 10.00 Fair and Breezy CLR 59 35.6 42% 29.63 0.0
04 15:15 NW 23 G 31 10.00 Fair and Breezy CLR 59 35.6 42% 29.63 0.0
04 14:55 NW 22 G 33 10.00 Partly Cloudy and Breezy SCT120 57.2 33.8 41% 29.63 0.0
04 14:35 W 18 G 28 10.00 Partly Cloudy SCT110 57.2 35.6 44% 29.62 0.0
04 14:15 NW 22 G 32 10.00 Partly Cloudy and Breezy SCT110 57.2 35.6 44% 29.61 0.0
04 13:55 NW 26 G 35 10.00 Fair and Windy CLR 60.8 35.6 39% 29.61 0.0
04 13:35 NW 21 G 30 10.00 Fair and Breezy CLR 60.8 37.4 42% 29.6 0.0
04 13:15 NW 28 G 37 10.00 Fair and Windy CLR 60.8 35.6 39% 29.59 0.0
04 12:55 NW 24 G 31 10.00 Fair and Breezy CLR 60.8 35.6 39% 29.58 0.0
04 12:35 W 20 G 30 10.00 Fair CLR 60.8 35.6 39% 29.58 0.0
04 12:15 NW 21 G 30 10.00 Fair and Breezy CLR 60.8 37.4 42% 29.58 0.0
04 11:55 NW 25 G 32 10.00 Fair and Breezy CLR 60.8 37.4 42% 29.57 0.0
04 11:35 N 23 G 30 10.00 Fair and Breezy CLR 60.8 37.4 42% 29.56 0.0
04 11:15 NW 22 G 28 10.00 Fair and Breezy CLR 60.8 39.2 45% 29.56 0.0
04 10:55 NW 25 G 31 10.00 Fair and Breezy CLR 60.8 39.2 45% 29.56 0.0
04 10:35 NW 25 G 29 10.00 Fair and Breezy CLR 60.8 39.2 45% 29.55 0.0
04 10:15 NW 24 G 30 10.00 Fair and Breezy CLR 59 39.2 48% 29.55 0.0
04 09:55 NW 23 G 28 10.00 Partly Cloudy and Breezy SCT120 59 39.2 48% 29.55 0.0
04 09:35 NW 24 G 29 10.00 Fair and Breezy CLR 59 39.2 48% 29.54 0.0
04 09:15 NW 21 G 26 10.00 Fair and Breezy CLR 59 39.2 48% 29.54 0.0
04 08:55 NW 22 G 25 10.00 Fair and Breezy CLR 57.2 39.2 51% 29.54 0.0
04 08:35 NW 23 G 28 10.00 Fair and Breezy CLR 57.2 39.2 51% 29.54 0.0
04 08:15 NW 13 10.00 Fair CLR 59 42.8 55% 29.52 0.0
04 07:55 NW 14 G 25 10.00 Fair CLR 59 42.8 55% 29.52 0.0
04 07:35 NW 21 G 28 10.00 Fair and Breezy CLR 59 42.8 55% 29.51 0.0
04 07:15 W 15 10.00 Fair CLR 57.2 39.2 51% 29.5 0.0
04 06:55 W 20 G 24 10.00 Fair CLR 57.2 39.2 51% 29.49 0.0
04 06:35 W 15 10.00 Partly Cloudy SCT100 57.2 39.2 51% 29.47 0.0
04 06:15 SW 14 10.00 Partly Cloudy SCT100 57.2 39.2 51% 29.46 0.0
04 05:55 SW 14 10.00 Fair CLR 57.2 37.4 48% 29.46 0.0
04 05:35 SW 14 G 20 10.00 Fair CLR 55.4 37.4 51% 29.46 0.0
04 05:15 SW 14 10.00 Fair CLR 55.4 37.4 51% 29.47 0.0
04 04:55 SW 14 10.00 Fair CLR 53.6 37.4 54% 29.47 0.0
04 04:35 SW 14 10.00 Fair CLR 53.6 37.4 54% 29.48 0.0
04 04:15 SW 13 10.00 Fair CLR 53.6 39.2 58% 29.49 0.0
04 03:55 SW 12 10.00 Fair CLR 53.6 39.2 58% 29.5 0.0
04 03:35 SW 10 10.00 Fair CLR 51.8 39.2 62% 29.51 0.0
04 03:15 SW 10 10.00 Fair CLR 51.8 39.2 62% 29.52 0.0
04 02:55 SW 13 10.00 Fair CLR 53.6 39.2 58% 29.53 0.0
04 02:35 SW 8 10.00 Fair CLR 51.8 39.2 62% 29.54 0.0
04 02:15 SW 12 10.00 Fair CLR 53.6 39.2 58% 29.54 0.0
04 01:55 SW 9 10.00 Fair CLR 53.6 37.4 54% 29.56 0.0
04 01:35 SW 9 10.00 Fair CLR 51.8 37.4 58% 29.57 0.0
04 01:15 SW 9 10.00 Fair CLR 51.8 37.4 58% 29.58 0.0
04 00:55 SW 9 10.00 Fair CLR 51.8 37.4 58% 29.6 0.0
04 00:35 SW 8 10.00 Fair CLR 53.6 37.4 54% 29.61 0.0
04 00:15 SW 9 10.00 Fair CLR 53.6 37.4 54% 29.61 0.0
03 23:55 SW 8 10.00 Fair CLR 55.4 35.6 47% 29.62 0.0
03 23:35 SW 8 10.00 Fair CLR 53.6 37.4 54% 29.63 0.0
03 23:15 SW 8 10.00 Fair CLR 55.4 37.4 51% 29.63 0.0
03 22:55 SW 7 10.00 Fair CLR 57.2 37.4 48% 29.65 0.0
03 22:35 SW 5 10.00 Fair CLR 53.6 37.4 54% 29.66 0.0
03 22:15 SW 5 10.00 Fair CLR 55.4 37.4 51% 29.67 0.0
03 21:55 SW 5 10.00 Fair CLR 57.2 37.4 48% 29.67 0.0
03 21:35 SW 3 10.00 Fair CLR 55.4 37.4 51% 29.67 0.0
03 21:15 S 3 10.00 Fair CLR 62.6 35.6 37% 29.68 0.0
03 20:55 Calm 10.00 Fair CLR 64.4 35.6 34% 29.68 0.0
03 20:35 Calm 10.00 Fair CLR 64.4 35.6 34% 29.68 0.0
03 20:15 Calm 10.00 Fair CLR 64.4 37.4 37% 29.68 0.0
03 19:55 NW 3 10.00 Fair CLR 66.2 37.4 35% 29.68 0.0
03 19:35 NW 3 10.00 Fair CLR 66.2 39.2 37% 29.68 0.0
03 19:15 NW 6 10.00 Fair CLR 68 37.4 33% 29.69 0.0
03 18:55 NW 9 10.00 Fair CLR 69.8 39.2 33% 29.7 0.0
03 18:35 NW 13 10.00 Fair CLR 69.8 37.4 31% 29.71 0.0
03 18:15 NW 13 G 17 10.00 Fair CLR 69.8 37.4 31% 29.71 0.0
03 17:55 NW 14 G 20 10.00 Fair CLR 69.8 37.4 31% 29.71 0.0
03 17:15 NW 14 G 20 10.00 Fair CLR 71.6 39.2 31% 29.72 0.0
03 16:55 NW 17 G 25 10.00 Fair CLR 69.8 39.2 33% 29.72 0.0
03 16:35 NW 17 10.00 Fair CLR 69.8 39.2 33% 29.72 0.0
03 16:15 W 20 G 26 10.00 Fair CLR 71.6 39.2 31% 29.73 0.0
03 15:55 W 16 G 22 10.00 Fair CLR 69.8 39.2 33% 29.74 0.0
03 15:35 NW 15 G 25 10.00 Fair CLR 69.8 41 35% 29.74 0.0
03 15:15 NW 18 G 25 10.00 Fair CLR 69.8 41 35% 29.75 0.0
03 14:55 NW 15 G 26 10.00 Fair CLR 69.8 41 35% 29.76 0.0
03 14:35 NW 22 G 28 10.00 Fair and Breezy CLR 69.8 41 35% 29.76 0.0
03 14:15 NW 22 G 29 10.00 Fair and Breezy CLR 69.8 41 35% 29.77 0.0
03 13:55 NW 22 G 29 10.00 Fair and Breezy CLR 69.8 42.8 38% 29.77 0.0
03 13:35 NW 18 G 29 10.00 Fair CLR 68 41 38% 29.78 0.0
03 13:15 N 15 G 25 10.00 Fair CLR 68 39.2 35% 29.78 0.0
03 12:55 NW 12 G 16 10.00 Fair CLR 66.2 41 40% 29.79 0.0
03 12:35 NW 17 G 32 10.00 Fair CLR 66.2 41 40% 29.79 0.0
03 12:15 NW 21 G 29 10.00 Fair and Breezy CLR 66.2 41 40% 29.79 0.0
03 11:35 NW 16 G 28 10.00 Fair CLR 66.2 42.8 43% 29.8 0.0
03 11:15 NW 18 G 26 10.00 Fair CLR 66.2 42.8 43% 29.79 0.0
03 10:55 NW 16 G 26 10.00 Fair CLR 64.4 44.6 49% 29.79 0.0
03 10:35 NW 22 G 26 10.00 Fair and Breezy CLR 64.4 44.6 49% 29.79 0.0
03 10:15 NW 20 10.00 Fair CLR 62.6 42.8 49% 29.79 0.0
03 09:55 NW 15 G 21 10.00 Fair CLR 62.6 42.8 49% 29.79 0.0
03 09:35 NW 17 G 22 10.00 Fair CLR 60.8 42.8 52% 29.79 0.0
03 09:15 NW 16 G 22 10.00 Fair CLR 57.2 42.8 59% 29.78 0.0
03 08:55 NW 16 G 24 10.00 Fair CLR 57.2 41 55% 29.78 0.0
03 08:35 NW 16 G 24 10.00 Fair CLR 55.4 41 59% 29.77 0.0
03 08:15 NW 17 10.00 Fair CLR 55.4 39.2 55% 29.76 0.0
03 07:55 NW 17 G 25 10.00 Fair CLR 53.6 39.2 58% 29.75 0.0
03 07:35 NW 16 G 25 10.00 Fair CLR 51.8 39.2 62% 29.74 0.0
03 07:15 NW 18 G 22 10.00 Fair CLR 50 39.2 67% 44 29.72 0.0
03 06:55 NW 16 G 23 10.00 Fair CLR 48.2 39.2 71% 43 29.71 0.0
03 06:35 NW 15 10.00 Fair CLR 48.2 39.2 71% 43 29.71 0.0
03 06:15 NW 13 10.00 Fair CLR 50 39.2 67% 46 29.7 0.0
03 05:55 W 9 10.00 Fair CLR 48.2 39.2 71% 45 29.7 0.0
03 05:35 W 10 10.00 Fair CLR 50 39.2 67% 46 29.69 0.0
03 05:15 W 12 10.00 Fair CLR 51.8 39.2 62% 29.69 0.0
03 04:55 W 10 10.00 Fair CLR 51.8 39.2 62% 29.69 0.0
03 04:35 W 9 10.00 Fair CLR 51.8 39.2 62% 29.7 0.0
03 04:15 SW 8 10.00 Fair CLR 53.6 37.4 54% 29.69 0.0
03 03:55 SW 7 10.00 Fair CLR 53.6 37.4 54% 29.7 0.0
03 03:35 SW 10 10.00 Partly Cloudy SCT110 55.4 35.6 47% 29.7 0.0
03 03:15 S 9 10.00 Mostly Cloudy BKN110 55.4 35.6 47% 29.71 0.0
03 02:55 S 13 10.00 Fair CLR 55.4 35.6 47% 29.71 0.0
03 02:35 S 14 10.00 Fair CLR 55.4 35.6 47% 29.72 0.0
03 02:15 S 14 10.00 Fair CLR 57.2 35.6 44% 29.73 0.0
03 01:55 S 16 G 20 10.00 Partly Cloudy SCT100 57.2 35.6 44% 29.74 0.0
03 01:35 S 15 G 22 10.00 Mostly Cloudy BKN100 59 35.6 42% 29.74 0.0
03 01:15 S 15 10.00 Mostly Cloudy BKN100 59 35.6 42% 29.75 0.0
03 00:55 S 7 10.00 Mostly Cloudy BKN100 57.2 37.4 48% 29.77 0.0
03 00:35 SW 12 G 17 10.00 Partly Cloudy SCT090 59 37.4 45% 29.79 0.0
03 00:15 S 9 10.00 Overcast SCT070 BKN080 OVC110 59 39.2 48% 29.79 0.0
02 23:55 S 9 10.00 Light Rain SCT065 BKN080 OVC110 59 41 51% 29.81 0.0
02 23:35 SW 5 G 29 10.00 Light Rain SCT065 SCT070 OVC100 62.6 39.2 42% 29.8 0.0
02 23:15 S 7 G 10 10.00 Mostly Cloudy BKN100 60.8 35.6 39% 29.81 0.0
02 22:55 S 12 10.00 Mostly Cloudy SCT060 SCT095 BKN110 60.8 35.6 39% 29.8 0.0
02 22:35 S 8 10.00 Overcast SCT060 OVC095 60.8 37.4 42% 29.83 0.0
02 22:15 S 7 10.00 Overcast SCT080 OVC095 60.8 37.4 42% 29.83 0.0
02 21:55 S 8 10.00 Overcast OVC095 60.8 37.4 42% 29.83 0.0
02 21:35 S 9 10.00 Mostly Cloudy BKN095 60.8 37.4 42% 29.83 0.0
02 21:15 S 8 10.00 Mostly Cloudy BKN095 62.6 37.4 39% 29.84 0.0
02 20:55 S 10 10.00 Mostly Cloudy BKN095 62.6 37.4 39% 29.84 0.0
02 20:35 S 5 10.00 Mostly Cloudy SCT070 SCT080 BKN095 64.4 35.6 34% 29.85 0.0
02 20:15 SW 6 10.00 Mostly Cloudy SCT065 BKN085 62.6 37.4 39% 29.86 0.0
02 19:55 SW 3 10.00 Mostly Cloudy SCT065 BKN085 62.6 37.4 39% 29.86 0.0
02 19:35 SW 5 10.00 Partly Cloudy SCT065 SCT085 64.4 37.4 37% 29.87 0.0
02 19:15 SW 8 G 40 10.00 Mostly Cloudy SCT044 SCT055 BKN095 64.4 37.4 37% 29.89 0.0
02 18:55 W 17 G 22 10.00 Partly Cloudy SCT095 66.2 35.6 32% 29.87 0.0
02 18:35 W 18 G 23 10.00 Partly Cloudy SCT095 66.2 35.6 32% 29.87 0.0
02 18:15 SW 15 10.00 Partly Cloudy SCT095 66.2 35.6 32% 29.87 0.0
02 17:55 SW 15 10.00 Partly Cloudy SCT095 66.2 35.6 32% 29.87 0.0
02 17:35 W 14 G 18 10.00 Partly Cloudy SCT095 68 35.6 30% 29.88 0.0
02 17:15 W 14 10.00 Partly Cloudy SCT095 68 37.4 33% 29.88 0.0
02 16:55 W 12 G 22 10.00 Partly Cloudy SCT095 69.8 37.4 31% 29.89 0.0
02 16:35 SW 14 G 17 10.00 Partly Cloudy SCT095 69.8 37.4 31% 29.9 0.0
02 16:15 W 13 G 17 10.00 Partly Cloudy SCT095 68 37.4 33% 29.91 0.0
02 15:55 SW 17 G 26 10.00 Partly Cloudy SCT095 68 37.4 33% 29.92 0.0
02 15:35 W 12 G 20 10.00 Fair CLR 66.2 37.4 35% 29.93 0.0
02 15:15 W 9 10.00 Partly Cloudy SCT095 66.2 37.4 35% 29.95 0.0
02 14:55 SW 12 G 18 10.00 Fair CLR 64.4 37.4 37% 29.96 0.0
02 14:35 SW 10 G 17 10.00 Fair CLR 64.4 35.6 34% 29.97 0.0
02 14:15 SW 6 G 18 10.00 Fair CLR 64.4 35.6 34% 29.98 0.0
02 13:55 SW 12 G 24 10.00 Fair CLR 62.6 35.6 37% 29.99 0.0
02 13:35 W 15 G 18 10.00 Fair CLR 62.6 35.6 37% 30 0.0
02 13:15 W 6 G 20 10.00 Fair CLR 62.6 35.6 37% 30.01 0.0
02 12:55 SW 12 G 16 10.00 Fair CLR 60.8 33.8 36% 30.02 0.0
02 12:35 SW 9 G 17 10.00 Fair CLR 60.8 33.8 36% 30.03 0.0
02 12:15 SW 8 10.00 Fair CLR 60.8 33.8 36% 30.05 0.0
02 11:55 W 12 G 17 10.00 Fair CLR 59 33.8 39% 30.06 0.0
02 11:35 SW 9 G 16 10.00 Fair CLR 57.2 33.8 41% 30.06 0.0
02 11:15 W 8 10.00 Fair CLR 57.2 32 39% 30.07 0.0
02 10:55 W 5 G 9 10.00 Fair CLR 55.4 30.2 38% 30.08 0.0
02 10:35 W 10 10.00 Partly Cloudy SCT095 55.4 30.2 38% 30.08 0.0
02 10:15 SW 10 10.00 Fair CLR 55.4 33.8 44% 30.09 0.0
02 09:55 W 10 10.00 Fair CLR 53.6 33.8 47% 30.09 0.0
Date Time (cdt) Wind (mph) Vis. (mi.) Weather Sky Cond. Air Dwpt Max. Min. Relative Humidity Wind Chill (°F) Heat Index (°F) altimeter (in) sea level (mb) 1 hr 3 hr 6 hr
6 hour
Temperature (ºF) Pressure Precipitation (in)